• In Hungary
  • List of Countries
  • For 7 days
  • Water Temperature
  • Satellite Maps
  • Weather Map
  • News
  • Weather Widgets
  • user-avatar
    Login

    Hourly Weather Oudenaarde

    Today, 18 June, Monday

    Time Temperature Precipitation Wind Pressure Humidity
    00:00 +16°C° 0 mm 3 mps 763 mmHg 84%
    01:00 +15°C° 0 mm 4 mps 763 mmHg 86%
    02:00 +14°C° 0 mm 4 mps 763 mmHg 88%
    03:00 +14°C° 0 mm 4 mps 762 mmHg 90%
    04:00 +15°C° 0 mm 4 mps 763 mmHg 90%
    05:00 +15°C° 0 mm 4 mps 763 mmHg 90%
    06:00 +15°C° 0 mm 5 mps 763 mmHg 89%
    07:00 +16°C° 0 mm 5 mps 763 mmHg 88%
    08:00 +17°C° 0 mm 5 mps 763 mmHg 86%
    09:00 +17°C° 0 mm 5 mps 763 mmHg 85%
    10:00 +19°C° 0.1 mm 5 mps 764 mmHg 83%
    11:00 +19°C° 0.1 mm 6 mps 764 mmHg 81%
    12:00 +19°C° 0 mm 6 mps 764 mmHg 78%
    13:00 +20°C° 0 mm 6 mps 764 mmHg 76%
    14:00 +20°C° 0 mm 6 mps 764 mmHg 74%
    15:00 +21°C° 0 mm 6 mps 764 mmHg 72%
    16:00 +20°C° 0 mm 6 mps 764 mmHg 73%
    17:00 +20°C° 0 mm 5 mps 764 mmHg 74%
    18:00 +20°C° 0 mm 5 mps 764 mmHg 76%
    19:00 +17°C° 0 mm 5 mps 764 mmHg 80%
    20:00 +17°C° 0 mm 4 mps 764 mmHg 85%
    21:00 +14°C° 0 mm 4 mps 765 mmHg 89%
    22:00 +14°C° 0 mm 4 mps 765 mmHg 91%
    23:00 +14°C° 0 mm 4 mps 765 mmHg 93%

    Tomorrow, 19 June, Tuesday

    Time Temperature Precipitation Wind Pressure Humidity
    00:00 +13°C° 0 mm 4 mps 765 mmHg 95%
    01:00 +14°C° 0 mm 4 mps 765 mmHg 96%
    02:00 +14°C° 0 mm 4 mps 765 mmHg 96%
    03:00 +14°C° 0 mm 4 mps 766 mmHg 96%
    04:00 +15°C° 0 mm 4 mps 766 mmHg 94%
    05:00 +17°C° 0 mm 4 mps 766 mmHg 93%
    06:00 +17°C° 0 mm 4 mps 766 mmHg 91%
    07:00 +18°C° 0 mm 4 mps 766 mmHg 90%
    08:00 +18°C° 0 mm 4 mps 766 mmHg 88%
    09:00 +19°C° 0 mm 4 mps 767 mmHg 86%
    10:00 +19°C° 0 mm 3 mps 767 mmHg 85%
    11:00 +20°C° 0 mm 3 mps 767 mmHg 83%
    12:00 +20°C° 0 mm 3 mps 767 mmHg 82%
    13:00 +21°C° 0 mm 3 mps 767 mmHg 81%
    14:00 +21°C° 0 mm 3 mps 767 mmHg 81%
    15:00 +21°C° 0 mm 3 mps 767 mmHg 80%
    16:00 +21°C° 0 mm 3 mps 767 mmHg 81%
    17:00 +21°C° 0 mm 2 mps 766 mmHg 82%
    18:00 +21°C° 0 mm 2 mps 766 mmHg 83%
    19:00 +20°C° 0 mm 2 mps 766 mmHg 86%
    20:00 +19°C° 0 mm 2 mps 767 mmHg 89%
    21:00 +18°C° 0 mm 2 mps 767 mmHg 92%
    22:00 +17°C° 0 mm 2 mps 767 mmHg 93%
    23:00 +17°C° 0 mm 2 mps 767 mmHg 94%

    Day after tomorrow, 20 June, Wednesday

    Time Temperature Precipitation Wind Pressure Humidity
    00:00 +16°C° 0 mm 2 mps 767 mmHg 95%
    01:00 +16°C° 0 mm 2 mps 766 mmHg 95%
    02:00 +15°C° 0 mm 2 mps 766 mmHg 95%
    03:00 +15°C° 0 mm 2 mps 766 mmHg 95%
    04:00 +16°C° 0 mm 2 mps 766 mmHg 93%
    05:00 +17°C° 0 mm 2 mps 766 mmHg 90%
    06:00 +18°C° 0 mm 2 mps 766 mmHg 88%
    07:00 +19°C° 0 mm 2 mps 766 mmHg 83%
    08:00 +21°C° 0 mm 3 mps 766 mmHg 77%
    09:00 +22°C° 0 mm 3 mps 766 mmHg 72%
    10:00 +24°C° 0 mm 3 mps 766 mmHg 69%
    11:00 +25°C° 0 mm 3 mps 765 mmHg 67%
    12:00 +26°C° 0 mm 3 mps 765 mmHg 64%
    13:00 +26°C° 0 mm 3 mps 765 mmHg 64%
    14:00 +26°C° 0 mm 3 mps 765 mmHg 63%
    15:00 +27°C° 0 mm 3 mps 764 mmHg 63%
    16:00 +26°C° 0 mm 3 mps 764 mmHg 66%
    17:00 +25°C° 0 mm 3 mps 764 mmHg 70%
    18:00 +25°C° 0 mm 3 mps 764 mmHg 73%
    19:00 +22°C° 0 mm 3 mps 764 mmHg 78%
    20:00 +20°C° 0 mm 3 mps 764 mmHg 84%
    21:00 +18°C° 0 mm 3 mps 764 mmHg 90%
    22:00 +17°C° 0 mm 3 mps 764 mmHg 91%
    23:00 +17°C° 0 mm 3 mps 764 mmHg 92%

    21 June, Thursday

    Time Temperature Precipitation Wind Pressure Humidity
    00:00 +16°C° 0 mm 3 mps 763 mmHg 93%
    01:00 +16°C° 0 mm 3 mps 763 mmHg 94%
    02:00 +16°C° 0 mm 3 mps 763 mmHg 95%
    03:00 +16°C° 0 mm 3 mps 763 mmHg 95%
    04:00 +15°C° 0.1 mm 4 mps 763 mmHg 94%
    05:00 +15°C° 0.1 mm 5 mps 763 mmHg 92%
    06:00 +15°C° 0.1 mm 6 mps 763 mmHg 90%
    07:00 +15°C° 0.1 mm 6 mps 763 mmHg 85%
    08:00 +15°C° 0.1 mm 6 mps 764 mmHg 79%
    09:00 +15°C° 0.1 mm 7 mps 764 mmHg 74%
    10:00 +15°C° 0 mm 7 mps 765 mmHg 67%
    11:00 +16°C° 0 mm 8 mps 765 mmHg 61%
    12:00 +16°C° 0 mm 8 mps 766 mmHg 54%
    13:00 +16°C° 0 mm 8 mps 766 mmHg 55%
    14:00 +16°C° 0 mm 8 mps 766 mmHg 56%
    15:00 +15°C° 0 mm 7 mps 766 mmHg 56%
    16:00 +15°C° 0 mm 7 mps 767 mmHg 60%
    17:00 +14°C° 0 mm 7 mps 767 mmHg 64%
    18:00 +14°C° 0 mm 6 mps 767 mmHg 67%
    19:00 +13°C° 0 mm 5 mps 768 mmHg 71%
    20:00 +10°C° 0 mm 5 mps 768 mmHg 74%
    21:00 +10°C° 0 mm 4 mps 769 mmHg 77%
    22:00 +10°C° 0 mm 4 mps 769 mmHg 79%
    23:00 +10°C° 0 mm 3 mps 769 mmHg 80%

    22 June, Friday

    Time Temperature Precipitation Wind Pressure Humidity
    00:00 +9°C° 0 mm 3 mps 769 mmHg 81%
    01:00 +9°C° 0 mm 3 mps 769 mmHg 81%
    02:00 +9°C° 0 mm 3 mps 769 mmHg 81%
    03:00 +9°C° 0 mm 3 mps 769 mmHg 82%
    04:00 +10°C° 0 mm 4 mps 769 mmHg 79%
    05:00 +10°C° 0 mm 5 mps 769 mmHg 76%
    06:00 +12°C° 0 mm 5 mps 769 mmHg 72%
    07:00 +13°C° 0 mm 6 mps 769 mmHg 70%
    08:00 +14°C° 0 mm 6 mps 769 mmHg 67%
    09:00 +14°C° 0 mm 6 mps 770 mmHg 64%
    10:00 +14°C° 0 mm 6 mps 770 mmHg 65%
    11:00 +14°C° 0 mm 6 mps 770 mmHg 66%
    12:00 +14°C° 0 mm 6 mps 770 mmHg 67%
    13:00 +14°C° 0 mm 6 mps 769 mmHg 68%
    14:00 +14°C° 0 mm 6 mps 769 mmHg 68%
    15:00 +14°C° 0 mm 6 mps 769 mmHg 68%
    16:00 +14°C° 0 mm 6 mps 769 mmHg 69%
    17:00 +13°C° 0 mm 5 mps 769 mmHg 70%
    18:00 +13°C° 0 mm 5 mps 769 mmHg 71%
    19:00 +12°C° 0 mm 5 mps 770 mmHg 74%
    20:00 +12°C° 0 mm 4 mps 770 mmHg 76%
    21:00 +11°C° 0 mm 3 mps 770 mmHg 79%
    22:00 +11°C° 0 mm 3 mps 770 mmHg 79%
    23:00 +11°C° 0 mm 3 mps 770 mmHg 79%

    23 June, Saturday

    Time Temperature Precipitation Wind Pressure Humidity
    00:00 +11°C° 0 mm 3 mps 770 mmHg 80%
    01:00 +10°C° 0 mm 3 mps 770 mmHg 82%
    02:00 +9°C° 0 mm 3 mps 770 mmHg 85%
    03:00 +9°C° 0 mm 3 mps 770 mmHg 88%
    04:00 +10°C° 0 mm 3 mps 770 mmHg 84%
    05:00 +11°C° 0 mm 3 mps 770 mmHg 80%
    06:00 +12°C° 0 mm 4 mps 770 mmHg 77%
    07:00 +13°C° 0 mm 4 mps 770 mmHg 73%
    08:00 +14°C° 0 mm 4 mps 770 mmHg 70%
    09:00 +14°C° 0 mm 5 mps 770 mmHg 66%
    10:00 +15°C° 0 mm 5 mps 769 mmHg 66%
    11:00 +15°C° 0 mm 5 mps 769 mmHg 65%
    12:00 +16°C° 0 mm 5 mps 769 mmHg 64%
    13:00 +16°C° 0 mm 5 mps 769 mmHg 64%
    14:00 +16°C° 0 mm 5 mps 769 mmHg 63%
    15:00 +16°C° 0 mm 5 mps 768 mmHg 63%
    16:00 +16°C° 0 mm 5 mps 768 mmHg 65%
    17:00 +15°C° 0 mm 5 mps 768 mmHg 67%
    18:00 +14°C° 0 mm 4 mps 768 mmHg 70%
    19:00 +13°C° 0 mm 4 mps 768 mmHg 74%
    20:00 +12°C° 0 mm 3 mps 769 mmHg 79%
    21:00 +11°C° 0 mm 3 mps 769 mmHg 84%
    22:00 +10°C° 0 mm 3 mps 769 mmHg 86%
    23:00 +10°C° 0 mm 2 mps 769 mmHg 88%
    Show more